FSMM2S LPPT-LEMD

Flight info

Callsign FSMM2S
Flight time N/A
Altitude 20000
Route LPPT ORVED DIPOL LEMD
Aircraft A320/M-V/N

Departure

Time 2026-05-03 22:36
Airport Lisbon Humberto Delgado Airport (LPPT)

Arrival

Time N/A
Airport Adolfo Suárez Madrid–Barajas Airport (LEMD)
Time Latitude Longitude Altitude Speed Heading
2026-05-03 22:20 38.77113 -9.13122 347 ft 0 kts 81°
2026-05-03 22:24 38.77112 -9.13141 357 ft 9 kts 95°
2026-05-03 22:24 38.77116 -9.13181 356 ft 5 kts 104°
2026-05-03 22:25 38.77128 -9.13205 357 ft 0 kts 171°
2026-05-03 22:31 38.77109 -9.13201 353 ft 8 kts 171°
2026-05-03 22:32 38.76972 -9.13165 347 ft 20 kts 167°
2026-05-03 22:32 38.76822 -9.13130 350 ft 23 kts 177°
2026-05-03 22:32 38.76767 -9.13185 352 ft 4 kts 261°
2026-05-03 22:32 38.76769 -9.13250 347 ft 10 kts 269°
2026-05-03 22:33 38.76755 -9.13316 352 ft 13 kts 259°
2026-05-03 22:33 38.76702 -9.13421 355 ft 16 kts 216°
2026-05-03 22:33 38.76644 -9.13548 350 ft 19 kts 256°
2026-05-03 22:33 38.76615 -9.13724 352 ft 22 kts 261°
2026-05-03 22:34 38.76581 -9.13928 350 ft 25 kts 256°
2026-05-03 22:34 38.76502 -9.14108 350 ft 20 kts 242°
2026-05-03 22:34 38.76505 -9.14201 349 ft 0 kts 281°
2026-05-03 22:34 38.76504 -9.14196 351 ft 1 kts 281°
2026-05-03 22:35 38.76505 -9.14203 349 ft 4 kts 285°
2026-05-03 22:35 38.76526 -9.14271 344 ft 12 kts 294°
2026-05-03 22:35 38.76581 -9.14391 338 ft 18 kts 322°
2026-05-03 22:35 38.76690 -9.14367 335 ft 19 kts 21°
2026-05-03 22:36 38.77105 -9.14150 351 ft 112 kts 22°
2026-05-03 22:36 38.78048 -9.13659 533 ft 169 kts 21°
2026-05-03 22:36 38.79210 -9.13013 1102 ft 196 kts 23°
2026-05-03 22:36 38.80396 -9.12261 1997 ft 176 kts 24°
2026-05-03 22:37 38.81484 -9.11501 2442 ft 191 kts 26°
2026-05-03 22:37 38.82763 -9.10582 3121 ft 230 kts 27°
2026-05-03 22:37 38.84172 -9.09541 4300 ft 235 kts 27°
2026-05-03 22:37 38.85558 -9.08502 5740 ft 227 kts 27°
2026-05-03 22:38 38.86920 -9.07482 6883 ft 232 kts 27°
2026-05-03 22:38 38.88391 -9.06390 7564 ft 256 kts 28°
2026-05-03 22:38 38.89794 -9.04820 8212 ft 283 kts 52°
2026-05-03 22:38 38.90775 -9.02499 8841 ft 309 kts 64°
2026-05-03 22:39 38.91721 -8.99902 9400 ft 334 kts 64°
2026-05-03 22:39 38.92738 -8.97098 9934 ft 358 kts 64°
2026-05-03 22:39 38.93818 -8.94156 10712 ft 368 kts 64°
2026-05-03 22:39 38.94912 -8.91203 11635 ft 374 kts 64°
2026-05-03 22:40 38.96043 -8.88164 12543 ft 381 kts 64°
2026-05-03 22:40 38.97195 -8.85071 13448 ft 387 kts 64°
2026-05-03 22:40 38.98369 -8.81922 14285 ft 394 kts 64°
2026-05-03 22:40 38.99560 -8.78722 15069 ft 400 kts 64°
2026-05-03 22:41 39.00770 -8.75468 15841 ft 407 kts 64°
2026-05-03 22:41 39.01997 -8.72162 16600 ft 413 kts 64°
2026-05-03 22:41 39.03242 -8.68807 17425 ft 418 kts 64°